Location: Unspecified
(0.0000°N, 0.0000°E)
Time: 06:38:43
(UTC+00:00)

Explorer 11/Cluster Stage 4 - All Passes

Search period start: 20 September 2024 00:00
Search period end: 30 September 2024 00:00
Orbit: 464 x 1208 km, 28.8° (Epoch: 19 September)

Date Brightness Start Highest point End Pass type
(mag) Time Alt. Az. Time Alt. Az. Time Alt. Az.
20 Sep - 00:09:27 10° SW 00:13:02 69° SSE 00:16:58 10° ENE night (unlit)
20 Sep - 01:58:14 10° WNW 02:00:53 17° NNW 02:03:49 10° NNE night (unlit)
20 Sep - 09:16:20 10° NNW 09:20:52 17° NNE 09:25:33 10° ENE daylight
20 Sep - 11:02:31 10° NW 11:10:06 49° NNE 11:17:34 10° ESE daylight
20 Sep - 12:51:09 10° WNW 12:58:57 56° SSW 13:06:03 10° SE daylight
20 Sep - 14:43:10 10° WSW 14:47:41 17° SSW 14:51:51 10° S daylight
20 Sep - 22:05:58 10° SSE 22:06:27 10° SSE 22:06:55 10° SE night (unlit)
20 Sep - 23:50:32 10° WSW 23:54:08 81° SSE 23:57:56 10° ENE night (unlit)
21 Sep - 01:39:49 10° WNW 01:41:58 14° NNW 01:44:15 10° N night (unlit)
21 Sep - 08:57:00 10° NNW 09:01:39 17° NNE 09:06:31 10° ENE daylight
21 Sep - 10:43:11 10° NW 10:50:45 52° NNE 10:58:23 10° ESE daylight
21 Sep - 12:31:52 10° WNW 12:39:36 53° SSW 12:46:51 10° SE daylight
21 Sep - 14:24:01 10° WSW 14:28:30 16° SSW 14:32:41 10° S daylight
21 Sep - 21:45:59 10° S 21:47:31 12° SSE 21:49:02 10° SE night (unlit)
21 Sep - 23:31:37 10° WSW 23:35:14 86° NNW 23:38:55 10° ENE night (unlit)
22 Sep - 01:21:35 10° NW 01:23:03 12° NNW 01:24:33 10° N night (unlit)
22 Sep - 08:37:43 10° NNW 08:42:25 18° NNE 08:47:24 10° ENE daylight
22 Sep - 10:23:54 10° NW 10:31:23 56° NNE 10:39:10 10° ESE daylight
22 Sep - 12:12:36 10° WNW 12:20:15 49° SSW 12:27:36 10° SE daylight
22 Sep - 14:04:54 10° WSW 14:09:17 16° SSW 14:13:27 10° S daylight
22 Sep - 21:26:23 10° S 21:28:35 14° SSE 21:30:41 10° ESE night (unlit)
22 Sep - 23:12:40 10° WSW 23:16:19 73° NNW 23:19:56 10° NE night (unlit)
23 Sep - 08:18:28 10° NNW 08:23:10 19° NNE 08:28:15 10° ENE daylight
23 Sep - 10:04:38 10° NW 10:12:01 60° NNE 10:19:53 10° ESE daylight
23 Sep - 11:53:22 10° W 12:00:53 46° SSW 12:08:18 10° SE daylight
23 Sep - 13:45:48 10° WSW 13:50:04 15° SSW 13:54:09 10° S daylight
23 Sep - 21:06:53 10° SSW 21:09:39 17° SSE 21:12:12 10° ESE night (unlit)
23 Sep - 22:53:41 10° WSW 22:57:24 62° NNW 23:00:57 10° NE night (unlit)
24 Sep - 07:59:15 10° NNW 08:03:56 19° NNE 08:09:03 10° ENE daylight
24 Sep - 09:45:25 10° NW 09:52:39 64° NNE 10:00:34 10° ESE daylight
24 Sep - 11:34:11 10° W 11:41:31 43° SSW 11:48:55 10° SE daylight
24 Sep - 13:26:45 10° SW 13:30:50 15° SSW 13:34:47 10° S daylight
24 Sep - 20:47:25 10° SSW 20:50:42 20° SSE 20:53:39 10° ESE visible
24 Sep - 22:34:39 10° WSW 22:38:28 53° NNW 22:41:58 10° NE night (unlit)
25 Sep - 07:40:05 10° NNW 07:44:41 20° NNE 07:49:49 10° ENE daylight
25 Sep - 09:26:14 10° NW 09:33:16 69° NNE 09:41:11 10° ESE daylight
25 Sep - 11:15:02 10° W 11:22:09 40° SSW 11:29:31 10° SE daylight
25 Sep - 13:07:46 10° SW 13:11:35 14° SSW 13:15:21 10° S daylight
25 Sep - 20:27:56 10° SSW 20:31:44 24° SSE 20:35:02 10° E visible
25 Sep - 22:15:36 10° WSW 22:19:30 46° NNW 22:23:00 10° NE night (unlit)
26 Sep - 07:20:57 10° NNW 07:25:28 21° NNE 07:30:33 10° ENE daylight
26 Sep - 09:07:05 10° NW 09:13:55 73° NNE 09:21:47 10° ESE daylight
26 Sep - 10:55:56 10° W 11:02:48 37° SSW 11:10:02 10° SE daylight
26 Sep - 12:48:50 10° SW 12:52:20 13° SSW 12:55:50 10° S daylight
26 Sep - 20:08:27 10° SSW 20:12:44 28° SSE 20:16:22 10° E visible
26 Sep - 21:56:30 10° WSW 22:00:30 40° NNW 22:04:02 10° NE night (unlit)
27 Sep - 07:01:50 10° NNW 07:06:15 21° NNE 07:11:16 10° ENE daylight
27 Sep - 08:47:59 10° NW 08:54:34 79° NNE 09:02:20 10° ESE daylight
27 Sep - 10:36:53 10° W 10:43:27 34° SSW 10:50:32 10° SE daylight
27 Sep - 12:30:01 10° SW 12:33:06 12° SSW 12:36:11 10° S daylight
27 Sep - 19:48:57 10° SW 19:53:43 33° SSE 19:57:40 10° E visible
27 Sep - 21:37:22 10° W 21:41:29 37° NNW 21:45:04 10° NE night (unlit)
28 Sep - 06:42:45 10° NNW 06:47:02 22° NNE 06:51:58 10° E daylight
28 Sep - 08:28:55 10° WNW 08:35:14 84° NNE 08:42:51 10° ESE daylight
28 Sep - 10:17:53 10° W 10:24:07 32° SSW 10:30:57 10° SSE daylight
28 Sep - 12:11:20 10° SW 12:13:52 12° SSW 12:16:24 10° S daylight
28 Sep - 17:43:34 10° S 17:45:45 12° SSE 17:47:48 10° SE daylight
28 Sep - 19:29:26 10° SW 19:34:40 39° SSE 19:38:55 10° E visible
28 Sep - 21:18:11 10° W 21:22:27 34° NNW 21:26:05 10° NNE visible
29 Sep - 06:23:40 10° NNW 06:27:50 22° NNE 06:32:39 10° E daylight
29 Sep - 08:09:52 10° WNW 08:15:55 90° SW 08:23:20 10° ESE daylight
29 Sep - 09:58:56 10° W 10:04:49 29° SSW 10:11:20 10° SSE daylight
29 Sep - 11:52:54 10° SSW 11:54:37 11° SSW 11:56:22 10° S daylight
29 Sep - 17:23:23 10° S 17:26:38 14° SSE 17:29:37 10° SE daylight
29 Sep - 19:09:54 10° SW 19:15:33 45° SSE 19:20:07 10° E visible
29 Sep - 20:58:58 10° W 21:03:23 31° NNW 21:07:07 10° NNE visible
